User: anonymous   Login
Location: Gleizolles
(44.4833°N, 6.7667°E)
Time: 11:03:37
(UTC+00:00)
Language:

PicSat - Orbit

View from above orbital plane
View from above orbital plane
View from above satellite
View from above satellite

Ground track
Ground track

The orbit data is extracted from the following two-line orbital elements,

1 43131U 18004W   22337.75642360  .00038684  00000-0  76464-3 0  9994
2 43131  97.3617  58.3615 0005656 101.7725 258.4159 15.47011667272643
Epoch (UTC): 03 December 2022 18:09:14
Eccentricity: 0.0005656
inclination: 97.3617°
perigee height: 421 km
apogee height: 429 km
right ascension of ascending node: 58.3615°
argument of perigee: 101.7725°
revolutions per day: 15.47011667
mean anomaly at epoch: 258.4159°
orbit number at epoch: 27264

The dashed part of the orbit path shows where the satellite is in the earth's shadow,  

DLR